UTA376 UUYY-UUWW

Flight info

Callsign UTA376
Flight time 1h 46m
Altitude 34000
Route RATUN1E RATUN N174 MIGRI N155 GOBOM T187 ROMTA ROMTA3A
Aircraft B738/M-SDE2E3FGHIRWXY/LB1

Departure

Time 2026-04-15 13:12
Airport Syktyvkar Airport (UUYY)

Arrival

Time 2026-04-15 14:58
Airport Vnukovo International Airport (UUWW)
Time Latitude Longitude Altitude Speed Heading
2026-04-15 12:19 61.66283 50.85298 296 ft 0 kts 304°
2026-04-15 12:58 61.66275 50.85328 300 ft 4 kts 287°
2026-04-15 12:59 61.66288 50.85427 298 ft 4 kts 223°
2026-04-15 12:59 61.66301 50.85450 298 ft 0 kts 216°
2026-04-15 13:03 61.66305 50.85457 301 ft 0 kts 216°
2026-04-15 13:04 61.66298 50.85446 296 ft 6 kts 215°
2026-04-15 13:05 61.66247 50.85370 301 ft 10 kts 215°
2026-04-15 13:05 61.66187 50.85309 299 ft 10 kts 201°
2026-04-15 13:05 61.66118 50.85253 300 ft 11 kts 201°
2026-04-15 13:05 61.66049 50.85194 296 ft 11 kts 201°
2026-04-15 13:06 61.65986 50.85153 296 ft 9 kts 182°
2026-04-15 13:06 61.65929 50.85183 297 ft 8 kts 157°
2026-04-15 13:06 61.65877 50.85230 296 ft 8 kts 157°
2026-04-15 13:06 61.65826 50.85275 298 ft 8 kts 157°
2026-04-15 13:07 61.65776 50.85320 295 ft 8 kts 157°
2026-04-15 13:07 61.65711 50.85363 300 ft 15 kts 173°
2026-04-15 13:07 61.65571 50.85266 298 ft 29 kts 202°
2026-04-15 13:07 61.65337 50.85070 301 ft 42 kts 201°
2026-04-15 13:08 61.65068 50.84847 295 ft 41 kts 202°
2026-04-15 13:08 61.64819 50.84635 299 ft 37 kts 201°
2026-04-15 13:08 61.64587 50.84439 298 ft 35 kts 202°
2026-04-15 13:08 61.64374 50.84260 300 ft 31 kts 201°
2026-04-15 13:09 61.64182 50.84099 302 ft 29 kts 202°
2026-04-15 13:09 61.64002 50.83947 301 ft 27 kts 201°
2026-04-15 13:09 61.63831 50.83806 299 ft 25 kts 202°
2026-04-15 13:09 61.63724 50.83713 299 ft 9 kts 204°
2026-04-15 13:10 61.63678 50.83644 298 ft 7 kts 180°
2026-04-15 13:10 61.63679 50.83698 298 ft 4 kts 21°
2026-04-15 13:10 61.63710 50.83704 299 ft 4 kts 17°
2026-04-15 13:10 61.63720 50.83712 299 ft 0 kts 23°
2026-04-15 13:11 61.63859 50.83832 297 ft 55 kts 22°
2026-04-15 13:11 61.64422 50.84304 297 ft 119 kts 22°
2026-04-15 13:11 61.65359 50.85090 327 ft 168 kts 21°
2026-04-15 13:12 61.66464 50.85999 957 ft 172 kts 21°
2026-04-15 13:12 61.67609 50.86935 1588 ft 184 kts 20°
2026-04-15 13:12 61.68900 50.88004 1863 ft 208 kts 21°
2026-04-15 13:12 61.70284 50.89165 2197 ft 223 kts 21°
2026-04-15 13:13 61.71762 50.90368 2693 ft 233 kts 14°
2026-04-15 13:13 61.73411 50.90194 3104 ft 247 kts 336°
2026-04-15 13:13 61.74752 50.87938 3836 ft 252 kts 308°
2026-04-15 13:13 61.75680 50.84775 4586 ft 256 kts 299°
2026-04-15 13:14 61.76510 50.81421 5364 ft 259 kts 298°
2026-04-15 13:14 61.76899 50.79831 5730 ft 260 kts 298°
2026-04-15 13:14 61.77690 50.76640 6430 ft 263 kts 300°
2026-04-15 13:14 61.78557 50.73209 7138 ft 267 kts 300°
2026-04-15 13:15 61.79445 50.69730 7835 ft 270 kts 301°
2026-04-15 13:15 61.80346 50.66220 8553 ft 272 kts 301°
2026-04-15 13:15 61.81109 50.62531 9223 ft 280 kts 284°
2026-04-15 13:15 61.81020 50.58377 9903 ft 291 kts 254°
2026-04-15 13:16 61.79983 50.54662 10549 ft 300 kts 229°
2026-04-15 13:16 61.79002 50.52560 10842 ft 309 kts 226°
2026-04-15 13:16 61.77370 50.49331 10995 ft 331 kts 224°
2026-04-15 13:16 61.75615 50.45967 11201 ft 350 kts 224°
2026-04-15 13:17 61.73785 50.42475 11655 ft 359 kts 224°
2026-04-15 13:17 61.71922 50.38909 12298 ft 362 kts 224°
2026-04-15 13:17 61.70054 50.35315 12983 ft 365 kts 224°
2026-04-15 13:17 61.68177 50.31689 13654 ft 368 kts 225°
2026-04-15 13:18 61.66284 50.28020 14308 ft 372 kts 225°
2026-04-15 13:18 61.64369 50.24309 14936 ft 375 kts 225°
2026-04-15 13:18 61.62441 50.20574 15591 ft 378 kts 225°
2026-04-15 13:18 61.60498 50.16813 16250 ft 381 kts 225°
2026-04-15 13:19 61.58541 50.13029 16884 ft 384 kts 224°
2026-04-15 13:19 61.56569 50.09227 17605 ft 385 kts 224°
2026-04-15 13:19 61.54585 50.05406 18220 ft 389 kts 224°
2026-04-15 13:19 61.52583 50.01557 18812 ft 393 kts 224°
2026-04-15 13:20 61.50559 49.97675 19355 ft 396 kts 224°
2026-04-15 13:20 61.48520 49.93769 19908 ft 399 kts 224°
2026-04-15 13:20 61.46466 49.89843 20451 ft 401 kts 224°
2026-04-15 13:20 61.44396 49.85894 20982 ft 404 kts 224°
2026-04-15 13:21 61.42309 49.81918 21509 ft 407 kts 224°
2026-04-15 13:21 61.40206 49.77921 22023 ft 411 kts 224°
2026-04-15 13:21 61.38085 49.73896 22533 ft 413 kts 224°
2026-04-15 13:21 61.35945 49.69842 23039 ft 416 kts 224°
2026-04-15 13:22 61.33795 49.65777 23519 ft 419 kts 224°
2026-04-15 13:22 61.31649 49.61725 23991 ft 422 kts 224°
2026-04-15 13:22 61.29463 49.57612 24393 ft 425 kts 224°
2026-04-15 13:22 61.27443 49.53136 24763 ft 425 kts 239°
2026-04-15 13:23 61.25910 49.47900 25200 ft 424 kts 242°
2026-04-15 13:23 61.24408 49.42604 25605 ft 427 kts 242°
2026-04-15 13:23 61.22890 49.37292 25972 ft 429 kts 242°
2026-04-15 13:23 61.21346 49.31952 26344 ft 432 kts 241°
2026-04-15 13:24 61.19785 49.26618 26721 ft 434 kts 241°
2026-04-15 13:24 61.18206 49.21263 27090 ft 436 kts 241°
2026-04-15 13:24 61.16614 49.15893 27440 ft 438 kts 241°
2026-04-15 13:24 61.15010 49.10506 27796 ft 441 kts 241°
2026-04-15 13:25 61.13396 49.05099 28148 ft 443 kts 241°
2026-04-15 13:25 61.11772 48.99669 28485 ft 445 kts 241°
2026-04-15 13:25 61.10137 48.94216 28816 ft 447 kts 241°
2026-04-15 13:25 61.08496 48.88750 29140 ft 449 kts 241°
2026-04-15 13:26 61.06841 48.83254 29452 ft 451 kts 241°
2026-04-15 13:26 61.05178 48.77744 29799 ft 452 kts 241°
2026-04-15 13:26 61.03515 48.72247 30255 ft 451 kts 241°
2026-04-15 13:26 61.01856 48.66776 30715 ft 448 kts 241°
2026-04-15 13:27 61.00208 48.61346 31079 ft 447 kts 240°
2026-04-15 13:27 60.98550 48.55905 31402 ft 447 kts 240°
2026-04-15 13:27 60.96899 48.50493 31777 ft 445 kts 240°
2026-04-15 13:27 60.95254 48.45103 32116 ft 445 kts 240°
2026-04-15 13:28 60.93609 48.39715 32421 ft 445 kts 240°
2026-04-15 13:28 60.91961 48.34335 32738 ft 444 kts 240°
2026-04-15 13:28 60.90333 48.29035 33070 ft 443 kts 240°
2026-04-15 13:28 60.88683 48.23676 33397 ft 443 kts 239°
2026-04-15 13:29 60.87038 48.18344 33701 ft 442 kts 239°
2026-04-15 13:29 60.85392 48.13019 34011 ft 442 kts 239°
2026-04-15 13:29 60.83746 48.07703 34319 ft 441 kts 239°
2026-04-15 13:29 60.82096 48.02385 34457 ft 444 kts 239°
2026-04-15 13:30 60.78758 47.91661 34456 ft 447 kts 239°
2026-04-15 13:30 60.75424 47.81003 34444 ft 441 kts 239°
2026-04-15 13:31 60.72117 47.70479 34464 ft 440 kts 239°
2026-04-15 13:31 60.68804 47.59983 34458 ft 440 kts 239°
2026-04-15 13:32 60.65503 47.49569 34454 ft 440 kts 239°
2026-04-15 13:32 60.62170 47.39105 34447 ft 441 kts 239°
2026-04-15 13:33 60.58818 47.28628 34455 ft 442 kts 239°
2026-04-15 13:33 60.55452 47.18153 34452 ft 443 kts 239°
2026-04-15 13:34 60.52064 47.07657 34445 ft 445 kts 239°
2026-04-15 13:34 60.48657 46.97151 34443 ft 446 kts 239°
2026-04-15 13:35 60.45235 46.86642 34434 ft 447 kts 239°
2026-04-15 13:35 60.41799 46.76133 34441 ft 448 kts 239°
2026-04-15 13:36 60.38347 46.65636 34439 ft 449 kts 239°
2026-04-15 13:36 60.34879 46.55135 34427 ft 449 kts 240°
2026-04-15 13:37 60.31423 46.44733 34430 ft 449 kts 239°
2026-04-15 13:37 60.27938 46.34295 34427 ft 449 kts 239°
2026-04-15 13:38 60.24450 46.23883 34430 ft 448 kts 239°
2026-04-15 13:38 60.20956 46.13490 34434 ft 448 kts 239°
2026-04-15 13:39 60.17453 46.03116 34427 ft 448 kts 239°
2026-04-15 13:39 60.13956 45.92792 34428 ft 447 kts 240°
2026-04-15 13:40 60.10835 45.82074 34417 ft 444 kts 245°
2026-04-15 13:40 60.07870 45.71254 34421 ft 443 kts 245°
2026-04-15 13:41 60.04881 45.60459 34424 ft 443 kts 244°
2026-04-15 13:41 60.01883 45.49793 34425 ft 443 kts 244°
2026-04-15 13:42 59.98850 45.39091 34421 ft 443 kts 244°
2026-04-15 13:42 59.95806 45.28400 34421 ft 443 kts 244°
2026-04-15 13:43 59.92756 45.17736 34418 ft 443 kts 244°
2026-04-15 13:43 59.89697 45.07087 34415 ft 443 kts 244°
2026-04-15 13:44 59.86631 44.96462 34414 ft 443 kts 244°
2026-04-15 13:44 59.83550 44.85836 34413 ft 443 kts 243°
2026-04-15 13:45 59.80462 44.75224 34408 ft 444 kts 243°
2026-04-15 13:47 59.68013 44.33051 34405 ft 442 kts 243°
2026-04-15 13:47 59.64890 44.22560 34398 ft 442 kts 243°
2026-04-15 13:48 59.61764 44.12099 34392 ft 441 kts 242°
2026-04-15 13:48 59.58636 44.01675 34390 ft 441 kts 242°
2026-04-15 13:49 59.55529 43.91349 34395 ft 440 kts 242°
2026-04-15 13:49 59.52400 43.80988 34391 ft 440 kts 242°
2026-04-15 13:50 59.49270 43.70665 34388 ft 439 kts 242°
2026-04-15 13:50 59.46133 43.60365 34379 ft 438 kts 241°
2026-04-15 13:51 59.42989 43.50094 34379 ft 438 kts 241°
2026-04-15 13:51 59.39842 43.39855 34380 ft 437 kts 241°
2026-04-15 13:52 59.36695 43.29659 34377 ft 437 kts 241°
2026-04-15 13:52 59.33539 43.19477 34372 ft 437 kts 240°
2026-04-15 13:53 59.30396 43.09386 34376 ft 437 kts 240°
2026-04-15 13:53 59.27230 42.99262 34375 ft 436 kts 240°
2026-04-15 13:54 59.24056 42.89156 34369 ft 436 kts 240°
2026-04-15 13:54 59.20875 42.79072 34373 ft 436 kts 240°
2026-04-15 13:55 59.17680 42.68990 34374 ft 436 kts 240°
2026-04-15 13:55 59.14502 42.59003 34368 ft 436 kts 240°
2026-04-15 13:56 59.11299 42.48984 34358 ft 436 kts 239°
2026-04-15 13:56 59.08086 42.38968 34359 ft 436 kts 240°
2026-04-15 13:57 59.04866 42.28989 34359 ft 436 kts 239°
2026-04-15 13:57 59.01637 42.19012 34363 ft 436 kts 239°
2026-04-15 13:58 58.98405 42.09070 34357 ft 436 kts 239°
2026-04-15 13:58 58.95160 41.99110 34351 ft 437 kts 239°
2026-04-15 13:59 58.91904 41.89183 34347 ft 437 kts 239°
2026-04-15 13:59 58.88640 41.79266 34348 ft 437 kts 239°
2026-04-15 14:00 58.85366 41.69361 34350 ft 437 kts 239°
2026-04-15 14:00 58.82088 41.59479 34347 ft 437 kts 239°
2026-04-15 14:01 58.77155 41.44664 34330 ft 438 kts 240°
2026-04-15 14:02 58.74415 41.34231 34338 ft 436 kts 247°
2026-04-15 14:02 58.71926 41.23574 34340 ft 437 kts 247°
2026-04-15 14:03 58.69407 41.12932 34329 ft 437 kts 247°
2026-04-15 14:03 58.66859 41.02393 34330 ft 438 kts 247°
2026-04-15 14:04 58.64268 40.91803 34330 ft 438 kts 246°
2026-04-15 14:04 58.61663 40.81224 34325 ft 438 kts 246°
2026-04-15 14:05 58.59051 40.70650 34315 ft 438 kts 246°
2026-04-15 14:05 58.56859 40.61815 34323 ft 438 kts 246°
2026-04-15 14:06 58.54236 40.51285 34311 ft 438 kts 246°
2026-04-15 14:06 58.51602 40.40768 34315 ft 438 kts 246°
2026-04-15 14:07 58.48960 40.30259 34307 ft 438 kts 245°
2026-04-15 14:07 58.46328 40.19848 34317 ft 438 kts 245°
2026-04-15 14:08 58.43668 40.09373 34307 ft 438 kts 246°
2026-04-15 14:08 58.41000 39.98916 34314 ft 438 kts 245°
2026-04-15 14:09 58.38322 39.88473 34298 ft 438 kts 245°
2026-04-15 14:09 58.35636 39.78038 34308 ft 438 kts 245°
2026-04-15 14:10 58.32274 39.68369 34309 ft 441 kts 228°
2026-04-15 14:10 58.27735 39.60487 34294 ft 442 kts 222°
2026-04-15 14:11 58.23097 39.52831 34293 ft 442 kts 221°
2026-04-15 14:11 58.18466 39.45128 34307 ft 442 kts 222°
2026-04-15 14:12 58.13853 39.37413 34289 ft 442 kts 221°
2026-04-15 14:12 58.09244 39.29688 34275 ft 443 kts 221°
2026-04-15 14:13 58.04624 39.21973 34283 ft 442 kts 222°
2026-04-15 14:13 58.00011 39.14284 34278 ft 442 kts 222°
2026-04-15 14:14 57.95429 39.06691 34272 ft 442 kts 221°
2026-04-15 14:14 57.90815 38.99079 34283 ft 440 kts 220°
2026-04-15 14:15 57.86208 38.91507 34266 ft 439 kts 221°
2026-04-15 14:15 57.81615 38.83983 34266 ft 438 kts 220°
2026-04-15 14:16 57.77027 38.76496 34263 ft 436 kts 221°
2026-04-15 14:16 57.72454 38.69053 34267 ft 435 kts 221°
2026-04-15 14:17 57.67886 38.61652 34263 ft 434 kts 220°
2026-04-15 14:17 57.63333 38.54297 34249 ft 428 kts 220°
2026-04-15 14:18 57.58923 38.47196 33853 ft 410 kts 220°
2026-04-15 14:18 57.56776 38.43742 33483 ft 406 kts 220°
2026-04-15 14:18 57.54652 38.40334 33159 ft 401 kts 220°
2026-04-15 14:18 57.52548 38.36969 32754 ft 398 kts 220°
2026-04-15 14:19 57.50457 38.33629 32400 ft 394 kts 220°
2026-04-15 14:19 57.48381 38.30314 32039 ft 391 kts 219°
2026-04-15 14:19 57.46322 38.27032 31681 ft 388 kts 218°
2026-04-15 14:19 57.44277 38.23779 31318 ft 385 kts 219°
2026-04-15 14:20 57.42250 38.20555 30966 ft 383 kts 219°
2026-04-15 14:20 57.40231 38.17356 30621 ft 380 kts 219°
2026-04-15 14:20 57.38223 38.14176 30263 ft 378 kts 219°
2026-04-15 14:20 57.36231 38.11025 29869 ft 375 kts 218°
2026-04-15 14:21 57.34254 38.07907 29506 ft 371 kts 219°
2026-04-15 14:21 57.32297 38.04823 29145 ft 368 kts 218°
2026-04-15 14:21 57.30359 38.01769 28793 ft 364 kts 219°
2026-04-15 14:21 57.28441 37.98753 28432 ft 361 kts 219°
2026-04-15 14:22 57.26533 37.95758 28094 ft 358 kts 218°
2026-04-15 14:22 57.24644 37.92798 27747 ft 355 kts 218°
2026-04-15 14:22 57.22794 37.89903 27400 ft 352 kts 218°
2026-04-15 14:22 57.20909 37.86956 27048 ft 349 kts 218°
2026-04-15 14:23 57.19062 37.84073 26715 ft 347 kts 218°
2026-04-15 14:23 57.17245 37.81241 26379 ft 346 kts 218°
2026-04-15 14:23 57.15411 37.78385 26052 ft 345 kts 218°
2026-04-15 14:23 57.13571 37.75525 25729 ft 349 kts 218°
2026-04-15 14:24 57.11687 37.72602 25405 ft 358 kts 217°
2026-04-15 14:24 57.09611 37.70126 25129 ft 352 kts 200°
2026-04-15 14:24 57.07424 37.68182 24946 ft 349 kts 210°
2026-04-15 14:24 57.05403 37.65725 24915 ft 352 kts 212°
2026-04-15 14:25 57.03363 37.63167 24789 ft 357 kts 212°
2026-04-15 14:25 57.01309 37.60596 24651 ft 357 kts 211°
2026-04-15 14:25 56.99255 37.58052 24505 ft 355 kts 211°
2026-04-15 14:25 56.97210 37.55546 24373 ft 353 kts 211°
2026-04-15 14:26 56.95162 37.53057 24245 ft 352 kts 211°
2026-04-15 14:26 56.93125 37.50596 24118 ft 350 kts 211°
2026-04-15 14:26 56.91093 37.48151 23992 ft 349 kts 210°
2026-04-15 14:26 56.89065 37.45719 23862 ft 348 kts 210°
2026-04-15 14:27 56.87034 37.43288 23724 ft 348 kts 210°
2026-04-15 14:27 56.85012 37.40872 23585 ft 347 kts 210°
2026-04-15 14:27 56.82990 37.38460 23447 ft 347 kts 210°
2026-04-15 14:27 56.80971 37.36053 23318 ft 346 kts 210°
2026-04-15 14:28 56.78954 37.33654 23199 ft 346 kts 210°
2026-04-15 14:28 56.76935 37.31254 23070 ft 346 kts 210°
2026-04-15 14:28 56.74920 37.28864 22942 ft 346 kts 210°
2026-04-15 14:28 56.72926 37.26501 22802 ft 346 kts 210°
2026-04-15 14:29 56.70909 37.24114 22692 ft 346 kts 210°
2026-04-15 14:29 56.68895 37.21733 22566 ft 345 kts 210°
2026-04-15 14:29 56.66880 37.19353 22441 ft 345 kts 210°
2026-04-15 14:29 56.64867 37.16979 22314 ft 345 kts 210°
2026-04-15 14:30 56.62855 37.14610 22185 ft 344 kts 210°
2026-04-15 14:30 56.60848 37.12249 22059 ft 343 kts 210°
2026-04-15 14:30 56.58848 37.09900 21937 ft 343 kts 209°
2026-04-15 14:30 56.56849 37.07554 21827 ft 342 kts 209°
2026-04-15 14:31 56.54855 37.05218 21700 ft 341 kts 209°
2026-04-15 14:31 56.52863 37.02887 21572 ft 340 kts 209°
2026-04-15 14:31 56.50878 37.00568 21440 ft 339 kts 209°
2026-04-15 14:31 56.48894 36.98252 21317 ft 339 kts 209°
2026-04-15 14:32 56.46916 36.95947 21199 ft 338 kts 209°
2026-04-15 14:32 56.44942 36.93649 21074 ft 337 kts 208°
2026-04-15 14:32 56.42972 36.91358 20950 ft 336 kts 208°
2026-04-15 14:32 56.41007 36.89078 20835 ft 335 kts 208°
2026-04-15 14:33 56.39047 36.86805 20708 ft 334 kts 208°
2026-04-15 14:33 56.37090 36.84537 20587 ft 334 kts 208°
2026-04-15 14:33 56.35139 36.82280 20468 ft 333 kts 208°
2026-04-15 14:33 56.33192 36.80030 20346 ft 332 kts 208°
2026-04-15 14:34 56.31143 36.78237 20200 ft 324 kts 188°
2026-04-15 14:34 56.28941 36.77937 20064 ft 315 kts 169°
2026-04-15 14:34 56.26805 36.78697 19921 ft 312 kts 163°
2026-04-15 14:34 56.24688 36.79621 19736 ft 314 kts 163°
2026-04-15 14:35 56.22571 36.80573 19567 ft 314 kts 163°
2026-04-15 14:35 56.20448 36.81521 19392 ft 314 kts 163°
2026-04-15 14:35 56.18339 36.82452 19214 ft 310 kts 163°
2026-04-15 14:35 56.16259 36.83360 19042 ft 306 kts 163°
2026-04-15 14:36 56.14203 36.84250 18878 ft 302 kts 163°
2026-04-15 14:36 56.12190 36.85118 18718 ft 301 kts 163°
2026-04-15 14:36 56.10128 36.86006 18556 ft 300 kts 163°
2026-04-15 14:36 56.08126 36.86865 18379 ft 299 kts 163°
2026-04-15 14:37 56.06104 36.87731 18200 ft 298 kts 163°
2026-04-15 14:37 56.04088 36.88594 18030 ft 298 kts 163°
2026-04-15 14:37 56.02074 36.89456 17869 ft 297 kts 163°
2026-04-15 14:37 56.00065 36.90314 17713 ft 296 kts 163°
2026-04-15 14:38 55.98066 36.91165 17540 ft 296 kts 163°
2026-04-15 14:38 55.96028 36.91691 17316 ft 297 kts 172°
2026-04-15 14:38 55.93977 36.91876 16989 ft 294 kts 174°
2026-04-15 14:38 55.91932 36.91986 16515 ft 294 kts 174°
2026-04-15 14:39 55.89890 36.92093 16075 ft 293 kts 174°
2026-04-15 14:39 55.87862 36.92212 15661 ft 291 kts 174°
2026-04-15 14:39 55.85847 36.92344 15289 ft 288 kts 173°
2026-04-15 14:39 55.83840 36.92487 14801 ft 290 kts 173°
2026-04-15 14:40 55.81835 36.92638 14497 ft 288 kts 173°
2026-04-15 14:40 55.79844 36.92792 14234 ft 285 kts 173°
2026-04-15 14:40 55.77876 36.92947 13995 ft 281 kts 173°
2026-04-15 14:40 55.75935 36.93102 13746 ft 277 kts 173°
2026-04-15 14:41 55.74016 36.93257 13510 ft 275 kts 173°
2026-04-15 14:41 55.72109 36.93412 13284 ft 273 kts 173°
2026-04-15 14:41 55.70219 36.93566 13069 ft 271 kts 173°
2026-04-15 14:41 55.68332 36.93722 12850 ft 272 kts 173°
2026-04-15 14:42 55.66445 36.93877 12645 ft 272 kts 173°
2026-04-15 14:42 55.64547 36.94034 12428 ft 275 kts 173°
2026-04-15 14:42 55.62631 36.94192 12224 ft 276 kts 172°
2026-04-15 14:42 55.60709 36.94350 12000 ft 277 kts 172°
2026-04-15 14:43 55.58786 36.94508 11774 ft 277 kts 172°
2026-04-15 14:43 55.56859 36.94665 11539 ft 277 kts 172°
2026-04-15 14:43 55.54934 36.94822 11331 ft 276 kts 172°
2026-04-15 14:43 55.53021 36.94976 11097 ft 273 kts 172°
2026-04-15 14:44 55.51137 36.95128 10884 ft 269 kts 172°
2026-04-15 14:44 55.49301 36.95277 10584 ft 268 kts 172°
2026-04-15 14:44 55.47434 36.95430 10280 ft 267 kts 172°
2026-04-15 14:44 55.45558 36.95583 10014 ft 264 kts 172°
2026-04-15 14:45 55.43763 36.95728 9771 ft 260 kts 172°
2026-04-15 14:45 55.41974 36.95873 9565 ft 255 kts 172°
2026-04-15 14:45 55.40215 36.96017 9356 ft 251 kts 172°
2026-04-15 14:45 55.38478 36.96159 9161 ft 250 kts 172°
2026-04-15 14:46 55.36744 36.96302 8966 ft 249 kts 172°
2026-04-15 14:46 55.35011 36.96442 8767 ft 249 kts 172°
2026-04-15 14:46 55.33281 36.96580 8573 ft 248 kts 172°
2026-04-15 14:46 55.31556 36.96719 8376 ft 248 kts 172°
2026-04-15 14:47 55.29910 36.97312 8151 ft 237 kts 149°
2026-04-15 14:47 55.28673 36.99094 8015 ft 228 kts 127°
2026-04-15 14:47 55.27940 37.01522 7781 ft 225 kts 109°
2026-04-15 14:47 55.27719 37.04239 7592 ft 229 kts 90°
2026-04-15 14:48 55.27991 37.07029 7421 ft 234 kts 83°
2026-04-15 14:48 55.28335 37.09829 7219 ft 235 kts 83°
2026-04-15 14:48 55.28683 37.12622 7010 ft 234 kts 83°
2026-04-15 14:48 55.29028 37.15410 6807 ft 233 kts 83°
2026-04-15 14:49 55.29366 37.18178 6615 ft 232 kts 83°
2026-04-15 14:49 55.29700 37.20947 6418 ft 232 kts 83°
2026-04-15 14:49 55.30032 37.23705 6212 ft 231 kts 83°
2026-04-15 14:49 55.30363 37.26419 6018 ft 230 kts 80°
2026-04-15 14:50 55.31116 37.28919 5795 ft 239 kts 51°
2026-04-15 14:50 55.32520 37.30501 5606 ft 247 kts 24°
2026-04-15 14:50 55.34247 37.30743 5392 ft 256 kts 353°
2026-04-15 14:50 55.35850 37.29358 5178 ft 262 kts 322°
2026-04-15 14:51 55.37137 37.27110 4986 ft 260 kts 315°
2026-04-15 14:51 55.38359 37.24779 4761 ft 259 kts 315°
2026-04-15 14:51 55.39578 37.22458 4554 ft 257 kts 315°
2026-04-15 14:51 55.40793 37.20168 4354 ft 255 kts 316°
2026-04-15 14:52 55.41611 37.18636 4216 ft 254 kts 316°
2026-04-15 14:52 55.42820 37.16376 4026 ft 252 kts 316°
2026-04-15 14:52 55.44027 37.14144 3834 ft 251 kts 319°
2026-04-15 14:52 55.45337 37.12110 3650 ft 252 kts 324°
2026-04-15 14:53 55.46692 37.10125 3460 ft 253 kts 324°
2026-04-15 14:53 55.48017 37.08171 3246 ft 250 kts 324°
2026-04-15 14:53 55.49381 37.06324 3047 ft 243 kts 338°
2026-04-15 14:53 55.50917 37.05334 2899 ft 229 kts 349°
2026-04-15 14:54 55.52410 37.04497 2714 ft 221 kts 349°
2026-04-15 14:54 55.53851 37.04211 2532 ft 197 kts 25°
2026-04-15 14:54 55.54763 37.05544 2490 ft 159 kts 75°
2026-04-15 14:54 55.54978 37.07419 2489 ft 158 kts 75°
2026-04-15 14:55 55.55412 37.09188 2440 ft 157 kts 72°
2026-04-15 14:55 55.55777 37.10967 2272 ft 152 kts 76°
2026-04-15 14:55 55.56143 37.12673 2044 ft 144 kts 73°
2026-04-15 14:55 55.56499 37.14260 1837 ft 136 kts 71°
2026-04-15 14:56 55.56841 37.15805 1630 ft 137 kts 71°
2026-04-15 14:56 55.57199 37.17387 1458 ft 140 kts 70°
2026-04-15 14:56 55.57560 37.19021 1262 ft 145 kts 70°
2026-04-15 14:56 55.57936 37.20682 1051 ft 144 kts 70°
2026-04-15 14:57 55.58302 37.22353 842 ft 147 kts 70°
2026-04-15 14:57 55.58672 37.24016 665 ft 144 kts 68°
2026-04-15 14:57 55.59019 37.25547 664 ft 120 kts 69°
2026-04-15 14:57 55.59274 37.26670 668 ft 77 kts 68°
2026-04-15 14:58 55.59404 37.27255 669 ft 22 kts 67°
2026-04-15 14:58 55.59481 37.27441 674 ft 18 kts 48°
2026-04-15 14:58 55.59574 37.27577 675 ft 17 kts 39°
2026-04-15 14:58 55.59617 37.27639 678 ft 7 kts 39°
2026-04-15 14:59 55.59655 37.27694 676 ft 7 kts 39°
2026-04-15 14:59 55.59695 37.27740 678 ft 7 kts 25°
2026-04-15 14:59 55.59742 37.27772 678 ft 9 kts 19°
2026-04-15 14:59 55.59828 37.27821 678 ft 15 kts 18°
2026-04-15 15:00 55.59922 37.27876 679 ft 8 kts 18°
2026-04-15 15:00 55.59978 37.27846 679 ft 10 kts 311°
2026-04-15 15:00 55.60035 37.27764 679 ft 11 kts 350°
2026-04-15 15:00 55.60089 37.27844 679 ft 11 kts 46°
2026-04-15 15:01 55.60106 37.27959 679 ft 10 kts 120°
2026-04-15 15:01 55.60074 37.28083 679 ft 12 kts 101°
2026-04-15 15:01 55.60078 37.28230 679 ft 12 kts 84°
2026-04-15 15:01 55.60084 37.28325 675 ft 5 kts 78°
2026-04-15 15:02 55.60101 37.28376 678 ft 5 kts 38°
2026-04-15 15:02 55.60136 37.28382 678 ft 5 kts 356°
2026-04-15 15:02 55.60169 37.28378 679 ft 4 kts 355°
2026-04-15 15:02 55.60178 37.28376 679 ft 0 kts 355°
2026-04-15 15:03 55.60180 37.28376 679 ft 0 kts 355°